Nairobi Wilson, Kenya

2:25 PM EAT on April 26, 2018 (GMT +0300)
Nairobi Wilson

Weather History for HKNW - September, 2013

Change the Weather History Date:

Sunday, September 15, 2013

  Actual Average Record
Temperature  
Mean Temperature 70 °F -  
Max Temperature 86 °F 73 °F 86 °F (2013)
Min Temperature 55 °F 58 °F 53 °F (2005)
Cooling Degree Days 6    
Growing Degree Days 20 (Base 50)    
Moisture  
Dew Point 50 °F    
Average Humidity 54    
Maximum Humidity 82    
Minimum Humidity 19    
Precipitation  
Precipitation 0.00 in - - ()
Sea Level Pressure  
Sea Level Pressure 30.16 in    
Wind  
Wind Speed 4 mph ()    
Max Wind Speed 21 mph    
Max Gust Speed -    
Visibility 6.2 miles    
Events      
Averages and records for this station are not official NWS values.
T = Trace of Precipitation, MM = Missing Value Source: Averaged Metar Reports

Daily Weather History Graph

Daily Weather History Graph

Search for Another Location

Airport or City:

Astronomy

Sep. 15, 2013 Rise Set
Actual Time 6:24 AM EAT 6:30 PM EAT
Civil Twilight 6:04 AM EAT 6:51 PM EAT
Nautical Twilight 5:40 AM EAT 7:15 PM EAT
Astronomical Twilight 5:16 AM EAT 7:39 PM EAT
Moon 2:57 PM EAT (9/15) 2:30 AM EAT (9/15)
Length of Visible Light 12h 47m
Length of Day
12h 05m
Waxing Gibbous, 79% of the Moon is Illuminated
Sep 15
Waxing Gibbous
Sep 19
Full
Sep 27
Last Quarter
Oct 5
New
Oct 12
First Quarter

Hourly Weather History & Observations

Time (EAT) Temp. Dew Point Humidity Pressure Visibility Wind Dir Wind Speed Gust Speed Precip Events Conditions
12:00 AM 64.4 °F 48.2 °F 56% 30.21 in - Calm Calm - N/A   Clear
1:00 AM 62.6 °F 50.0 °F 63% 30.21 in - Calm Calm - N/A   Clear
2:00 AM 60.8 °F 53.6 °F 77% 30.18 in - Calm Calm - N/A   Clear
3:00 AM 59.0 °F 53.6 °F 82% 30.15 in - Calm Calm - N/A   Clear
4:00 AM 57.2 °F 51.8 °F 82% 30.18 in - Calm Calm - N/A   Clear
5:00 AM 55.4 °F 50.0 °F 82% 30.18 in - Calm Calm - N/A   Clear
6:00 AM 55.4 °F 50.0 °F 82% 30.18 in - Calm Calm - N/A   Clear
7:00 AM 55.4 °F 50.0 °F 82% 30.21 in - Calm Calm - N/A   Clear
8:00 AM 60.8 °F 53.6 °F 77% 30.21 in - Calm Calm - N/A   Clear
9:00 AM 68.0 °F 55.4 °F 64% 30.21 in - Calm Calm - N/A   Clear
10:00 AM 71.6 °F 55.4 °F 57% 30.24 in - Calm Calm - N/A   Clear
11:00 AM 75.2 °F 53.6 °F 47% - - Calm Calm - N/A   Clear
12:00 PM 80.6 °F 51.8 °F 37% 30.21 in 6.2 mi South 13.8 mph - N/A   Partly Cloudy
1:00 PM 80.6 °F 50.0 °F 34% 30.15 in 6.2 mi South 15.0 mph - N/A   Partly Cloudy
2:00 PM 84.2 °F 46.4 °F 27% 30.09 in 6.2 mi SSE 15.0 mph - N/A   Partly Cloudy
3:00 PM 82.4 °F 44.6 °F 26% 30.06 in 6.2 mi ESE 5.8 mph - N/A   Partly Cloudy
4:00 PM 86.0 °F 39.2 °F 19% 30.06 in 6.2 mi South 13.8 mph - N/A   Partly Cloudy
5:00 PM 84.2 °F 41.0 °F 22% 30.06 in 6.2 mi ESE 11.5 mph - N/A   Scattered Clouds
6:00 PM 80.6 °F 50.0 °F 34% 30.06 in 6.2 mi East 20.7 mph - N/A   Scattered Clouds
7:00 PM 75.2 °F 46.4 °F 36% 30.09 in 6.2 mi ENE 11.5 mph - N/A   Scattered Clouds
8:00 PM 71.6 °F 46.4 °F 41% 30.12 in - East 11.5 mph - N/A   Clear
9:00 PM 69.8 °F 48.2 °F 46% 30.15 in - East 13.8 mph - N/A   Unknown
10:00 PM 68.0 °F 50.0 °F 52% 30.18 in - ENE 8.1 mph - N/A   Clear
11:00 PM 66.2 °F 51.8 °F 60% 30.18 in - ENE 8.1 mph - N/A   Clear